Regional Weather Roundup
Issued by NWS

Home | Current Version | Previous Version | Graphics & Text | Print | Product List | Glossary On
Versions: 1 2 3 4 5 6 7 8 9 10 11 12 13 14 15 16 17 18 19 20 21 22 23 24 25 26 27 28 29 30 31 32 33 34 35 36 37 38 39 40 41 42 43 44 45 46 47 48 49
000
ASUS45 KBOU 312307
RWRCO

WEATHER ROUNDUP FOR COLORADO
NATIONAL WEATHER SERVICE DENVER/BOULDER CO
400 PM MST SAT JAN 31 2015

NOTE: "FAIR" INDICATES FEW OR NO CLOUDS BELOW 12000 FEET WITH NO
SIGNIFICANT WEATHER AND/OR OBSTRUCTIONS TO VISIBILITY.

COZ001>005-013-030-031-010000-
...NORTHWEST COLORADO...

CITY           SKY/WX    TMP DP  RH WIND       PRES   REMARKS
CRAIG          MOSUNNY   35  27  72 SW8       29.92R WCI  29
HAYDEN         PTSUNNY   34  25  69 CALM      29.91S
MEEKER         PTSUNNY   38  29  70 SW9       29.92S
MOUNT WERNER   NOT AVBL
STEAMBOAT SPGS CLOUDY    31  28  88 S3        29.90R
WALDEN         PTSUNNY   32  25  74 NW3       29.85R
$$

COZ006>008-011-010000-
...WEST CENTRAL VALLEYS...

CITY           SKY/WX    TMP DP  RH WIND       PRES   REMARKS
GRAND JUNCTION CLOUDY    42  38  85 N6        29.92R
MONTROSE       CLOUDY    38  35  89 CALM      29.94R
EAGLE          CLOUDY    37  36  93 W10       29.89R
RIFLE          CLOUDY    43  32  65 W9        29.90R
DELTA          CLOUDY    44  38  82 CALM      29.91R
NUCLA          CLOUDY    39  36  87 W7        29.96R
$$

COZ017>023-064>068-010000-
...SOUTHWEST COLORADO...

CITY           SKY/WX    TMP DP  RH WIND       PRES   REMARKS
DURANGO        CLOUDY    36  33  89 SW7       29.86S
CORTEZ         CLOUDY    38  36  92 W10       29.90S
PAGOSA SPRINGS LGT SNOW  35  35  99 SW3       29.88R
TELLURIDE      LGT SNOW  30  30 100 W10G17    29.92R WCI  21
WOLF CREEK PAS SNOW      21  21 100 SW14      29.92R VSB 1/4 WCI   8
$$

COZ009-010-012-014-032>034-037-058>063-010000-
...CENTRAL COLORADO...

CITY           SKY/WX    TMP DP  RH WIND       PRES   REMARKS
ASPEN          CLOUDY    33  29  85 N8        29.87R WCI  26
BUENA VISTA    CLOUDY    35  32  89 CALM      29.79S
COPPER MTN     SNOW      27  21  80 W18G26    29.87S VSB<1/4 WCI  13
BERTHOUD PASS  CLOUDY    16  10  79 NW33G40   29.83S WCI  -5
COTTONWOOD PAS FOG       32  32 100 CALM      29.81S VSB 3/4
GUNNISON       CLOUDY    36  27  69 SW12G21   29.86R
KREMMLING      CLOUDY    36  27  69 NW12      29.87R
LEADVILLE      CLOUDY    29  23  78 NW14      29.83R WCI  18
MONARCH PASS   CLOUDY    23  21  93 W33G116   29.95S WCI   5
SALIDA         CLOUDY    37  34  87 CALM      29.86F
SUNLIGHT       FOG      N/A N/A N/A CALM        N/A  VSB<1/4
WILKERSON PASS CLOUDY   N/A N/A N/A N10G18    29.84S
$$

COZ069>075-010000-
...SAN LUIS VALLEY/SANGRE DE CRISTO MOUNTAINS...

CITY           SKY/WX    TMP DP  RH WIND       PRES   REMARKS
ALAMOSA        CLOUDY    33  29  85 CALM      29.82R
LA VETA PASS   LGT SNOW  27  25  93 MISG      29.80R
SAGUACHE       LGT SNOW  32  30  93 S3        29.83S
$$

COZ035-036-038>040-010000-
...NORTHERN COLORADO FRONT RANGE...

CITY           SKY/WX    TMP DP  RH WIND       PRES   REMARKS
DENVER INTL AP CLOUDY    35  31  85 NW3       29.80S
DMNS CITY PARK   N/A     37  27  67 NE3       29.80R
AURORA         CLOUDY    33  32  99 CALM      29.80S
FRONT RANGE AP NOT AVBL
ERIE MUNI ARPT CLOUDY    38  30  73 CALM      29.80S
BOULDER MUN AP CLOUDY    37  27  65 E3        29.80R
CENTENNIAL     FLURRIES  34  27  75 NE3       29.79S
BROOMFIELD     PTSUNNY   37  27  65 CALM      29.80S
FORT COLLINS   CLOUDY    39  28  65 CALM      29.82S
LONGMONT       CLOUDY    41  28  60 SE3       29.82S
$$

COZ041-046-047-076>085-087-088-010000-
...PIKES PEAK/PALMER DIVIDE AND SOUTHERN FOOTHILLS...

CITY           SKY/WX    TMP DP  RH WIND       PRES   REMARKS
COLO. SPRINGS  LGT SNOW  35  33  92 E3        29.79S FOG
A. F. ACADEMY  LGT SNOW  32  32 100 NW7       29.78S FOG     WCI  26
ELLICOTT       SNOW     N/A N/A N/A N6        29.78S
FALCON         LGT SNOW  32  31  94 N7        29.79S WCI  26
FORT CARSON    CLOUDY    36  34  93 N5        29.78R
LIMON          FLURRIES  33  31  92 NW10      29.78F WCI  25
MONUMENT HILL  LGT SNOW  30  28  93 N5        29.78S WCI  25
TRINIDAD       CLOUDY    43  32  65 E7        29.75S
$$

COZ042>045-048>051-090-091-010000-
...NORTHEAST COLORADO...

CITY           SKY/WX    TMP DP  RH WIND       PRES   REMARKS
GREELEY ARPT   CLOUDY    41  27  56 CALM      29.80S
AKRON          LGT SNOW  33  32  96 N8        29.79S VSB 1   WCI  26
BURLINGTON     FLURRIES  35  33  92 N12       29.78S WCI  27
WRAY           LGT RAIN  35  35 100 N9        29.81S WCI  28
STERLING       MIX PCPN  34  34 100 N5        29.81S WCI  30
HOLYOKE        NOT AVBL
FORT MORGAN    RAIN      36  33  91 N6        29.81S
$$

COZ086-089-092>099-010000-
...SOUTHEAST COLORADO...

CITY           SKY/WX    TMP DP  RH WIND       PRES   REMARKS
PUEBLO         LGT RAIN  43  33  68 N3        29.78R
LA JUNTA       CLOUDY    46  33  60 NE13      29.77S
LAMAR          CLOUDY    43  36  76 MISG      29.77S
SPRINGFIELD      N/A     44  34  67 N9        29.75S
$$


USA.gov is the U.S. government's official web portal to all federal, state and local government web resources and services.